Temperature
16 16 16 16 16 16 16 15 15 15 15 15 15 15 15 15 15 15 15 15 15 14 14 14 14 15 15 15 15 15 14 14 14 14 14 14 14 14
16 16 15 15 15 15 15 15 15 15 15 15 15 15 15 15 15 15 15 14 14 14 14 14 14 14 14 14 14 14 14 14 14 14 14 14 14 14
15 15 15 15 15 15 15 15 15 15 15 15 15 15 14 15 15 14 14 14 14 14 14 14 14 14 14 14 14 14 14 14 14 14 14 14 14 14
15 15 15 15 15 15 15 15 15 15 15 15 14 14 14 14 14 14 14 14 14 14 14 14 14 14 14 14 14 14 14 14 14 14 13 13 13 13
15 15 15 15 15 15 14 14 14 14 14 14 14 14 14 14 14 14 14 14 14 14 14 14 14 14 14 14 13 14 13 13 13 13 13 13 13 13
15 14 14 14 14 14 14 14 14 14 14 14 14 14 14 14 13 13 13 14 14 14 13 13 13 13 13 13 13 13 13 13 13 13 13 13 13 13
15 15 14 14 14 14 14 14 14 14 13 13 13 13 13 13 13 13 13 13 13 13 13 13 13 13 13 13 13 13 13 13 13 13 13 13 12 12
15 14 14 14 14 14 14 13 13 13 13 13 13 13 13 13 13 13 13 13 13 13 13 13 12 12 12 12 12 12 13 12 12 12 12 12 12 12
14 14 14 14 14 14 13 13 13 13 13 13 13 13 12 12 12 12 12 12 12 12 12 12 12 12 12 12 12 12 12 12 12 12 12 12 12 12
14 14 14 14 13 13 13 13 13 13 13 13 12 12 12 12 12 12 12 12 12 12 12 12 12 12 12 12 12 12 12 12 12 12 12 12 12 12
14 14 13 13 13 13 13 13 13 13 12 12 12 12 12 12 12 12 12 12 12 12 12 11 12 12 12 12 12 12 12 12 11 11 11 11 11 11
14 13 13 13 13 13 13 12 12 12 12 12 12 12 12 12 12 12 12 11 11 11 11 11 11 11 11 12 12 11 11 11 11 11 11 11 11 11
13 13 13 13 13 12 12 12 12 12 12 12 12 12 12 12 12 11 11 11 11 11 11 11 11 11 11 11 11 11 11 11 11 11 11 11 11 11
13 13 13 12 12 12 12 12 12 12 11 11 11 11 11 11 11 11 11 11 11 11 11 11 11 10 10 10 10 11 11 10 10 10 10 10 10 10
13 13 12 12 12 12 12 12 12 11 11 11 11 11 11 11 11 11 11 11 11 11 11 10 10 10 10 10 10 10 10 10 10 10 10 10 10 10
12 12 12 12 12 12 12 12 11 11 11 11 11 11 11 11 11 10 10 10 10 11 10 10 10 10 10 10 10 10 10 9 10 10 10 10 10 10
12 12 12 12 12 12 11 11 11 11 11 11 11 11 10 10 10 10 10 10 10 10 10 10 10 10 10 10 10 10 9 9 9 9 9 10 10 10
12 12 11 11 11 11 11 11 11 11 11 11 11 10 10 10 10 10 10 10 10 10 10 10 10 10 10 10 10 10 9 9 10 9 9 9 10 10
11 11 11 11 11 11 11 11 11 11 11 11 10 10 10 10 10 10 10 10 10 10 10 10 10 9 9 9 9 9 9 9 9 9 9 9 9 9
11 11 11 11 11 11 11 11 11 11 11 10 10 10 10 10 10 10 10 10 10 10 10 10 10 9 9 9 9 9 9 9 9 9 9 9 9 9
11 11 11 11 11 11 10 11 11 10 10 10 10 10 10 10 9 9 9 9 9 9 9 10 10 9 9 9 9 9 9 9 9 9 9 9 9 9
11 11 11 11 11 10 10 10 10 10 10 10 10 10 10 9 9 9 9 9 9 9 9 9 9 9 9 9 9 9 9 9 9 9 9 9 9 8
10 10 10 10 10 10 10 10 10 10 10 10 9 9 9 9 9 9 9 9 9 9 9 9 9 9 9 9 9 9 9 9 9 9 9 9 8 8
Wind_Speed
1 1 1 1 1 2 2 3 3 1 2 2 1 2 2 2 2 2 2 2 3 3 3 3 3 3 4 4 4 4 4 4 4 4 5 5 5 5
1 1 0 0 0 1 2 2 2 3 2 2 2 2 2 1 2 1 1 1 2 3 3 3 3 3 3 4 4 4 5 5 5 5 5 5 5 5
0 1 0 0 0 0 1 1 2 3 2 2 1 2 2 2 2 1 2 2 3 4 3 3 3 4 3 4 4 5 5 5 5 5 5 5 5 6
1 1 1 1 0 1 1 1 2 2 3 2 2 2 2 2 1 1 1 2 2 4 4 4 4 4 4 4 5 5 5 6 6 6 5 5 5 6
2 2 2 1 1 1 1 1 1 1 1 2 2 1 2 2 1 1 2 2 2 3 4 5 5 5 5 5 5 5 5 5 6 6 6 5 6 6
2 2 2 2 3 2 2 2 2 2 1 1 1 2 2 2 1 1 2 2 2 2 2 3 4 5 5 5 5 5 5 5 5 6 6 6 6 6
2 2 3 3 3 3 2 2 2 2 2 1 1 2 2 1 2 2 2 3 2 2 2 2 2 3 4 5 6 6 6 6 6 6 6 6 7 7
2 2 2 3 3 3 3 4 4 3 3 3 3 3 3 3 2 2 2 2 2 1 1 3 2 3 3 3 4 6 7 7 6 7 6 6 6 7
3 2 2 1 1 1 1 1 2 3 4 4 4 4 4 3 2 2 2 3 4 2 1 3 2 3 3 3 5 5 6 6 6 6 6 6 6 7
3 3 3 2 2 2 1 1 1 2 3 3 4 4 4 4 4 3 3 3 3 2 2 3 3 3 3 4 5 5 5 5 6 6 6 7 7 7
3 3 3 3 2 2 2 1 2 3 3 2 3 3 4 3 3 2 1 1 3 3 2 3 3 3 3 3 3 4 4 4 4 5 6 6 7 7
3 3 4 4 4 4 3 3 3 4 3 2 2 3 3 3 3 3 3 3 3 3 3 3 2 2 2 2 2 2 2 3 3 4 5 5 6 4
3 3 4 5 5 5 5 5 6 4 2 2 2 2 2 2 2 3 4 4 4 4 3 3 2 2 2 3 2 2 2 2 2 2 3 4 6 5
4 4 4 5 5 5 4 4 4 2 2 2 2 3 3 3 3 4 4 5 6 7 6 5 4 3 3 3 3 2 2 2 2 2 3 3 4 6
4 5 4 5 4 3 4 4 3 2 2 3 3 4 4 4 3 3 3 3 4 5 5 6 6 4 3 4 4 3 3 3 3 3 3 3 3 2
3 3 3 3 2 3 2 3 3 3 4 4 4 4 3 2 2 3 3 2 2 3 3 4 5 5 4 4 4 4 4 3 3 3 3 3 3 3
2 1 0 1 2 2 2 3 3 3 4 4 4 4 3 3 3 3 2 2 3 3 3 2 2 2 4 4 4 5 4 4 4 3 3 4 4 3
3 2 2 3 4 4 4 3 3 4 4 4 4 4 4 4 4 3 3 3 4 4 4 2 1 1 2 3 6 6 5 5 4 3 3 4 4 4
2 3 4 4 4 5 5 5 5 5 4 4 5 5 5 4 4 4 3 3 4 4 4 2 2 3 3 4 3 6 5 4 3 3 3 4 5 4
3 4 4 5 5 5 5 5 5 4 4 4 5 5 5 4 4 4 4 4 4 5 4 3 4 4 5 5 4 3 5 5 4 4 3 3 3 4
4 4 5 5 5 5 5 5 5 5 5 5 5 5 5 5 5 5 5 6 5 5 5 5 4 5 3 2 3 3 3 4 5 4 3 3 2 2
4 4 4 5 5 5 5 5 5 5 5 5 5 5 5 5 6 6 6 5 5 5 5 4 2 2 2 4 4 4 3 2 1 2 3 4 3 3
4 4 4 4 5 4 4 5 5 5 5 5 5 5 5 5 6 6 6 6 5 5 4 4 3 2 3 4 4 3 4 3 1 1 2 3 5 7
Wind_Direction
184 175 193 234 203 205 184 181 176 229 284 284 289 318 310 286 276 258 248 242 232 234 240 237 247 262 262 253 247 247 243 228 223 222 223 224 224 222
180 139 174 242 192 175 166 173 185 192 235 265 264 304 319 317 314 285 260 252 235 232 233 228 236 252 260 256 252 253 247 237 227 223 219 217 211 214
184 155 215 173 152 167 147 153 173 177 207 271 288 311 322 321 334 314 269 255 250 239 241 241 248 257 257 262 258 253 245 237 224 220 217 212 209 215
206 163 227 197 193 224 175 180 185 188 189 240 294 316 305 308 309 303 302 269 255 251 246 248 254 261 262 265 267 256 239 231 224 221 220 216 217 223
207 199 225 196 228 233 200 190 194 177 175 203 273 296 301 317 332 314 307 305 287 274 258 255 255 260 264 266 266 264 246 233 227 221 219 217 221 229
204 214 221 209 220 212 200 195 173 148 153 188 264 290 290 302 313 307 308 299 291 308 303 280 267 264 259 261 261 259 254 242 229 224 220 218 224 231
227 233 233 217 208 201 199 194 171 166 178 200 255 278 285 301 285 277 278 291 280 289 298 297 291 284 273 256 249 248 246 244 236 224 221 221 224 230
228 257 258 239 221 210 204 195 183 187 205 219 238 249 259 260 268 261 270 288 290 297 276 289 286 275 280 254 243 242 241 238 237 233 229 227 227 231
224 247 254 250 221 215 215 212 220 220 209 210 226 239 243 235 234 248 252 260 264 278 256 279 278 273 275 262 249 245 243 237 235 239 235 233 233 233
230 226 223 240 227 203 196 302 281 268 246 232 230 239 241 231 224 231 240 259 268 261 224 262 276 272 280 275 251 239 239 239 239 241 242 238 236 237
236 229 221 225 224 183 164 252 293 297 286 247 247 259 261 247 210 202 233 267 282 270 220 238 265 276 278 269 265 243 243 248 248 244 240 240 237 234
242 239 230 230 222 192 194 205 242 268 272 278 305 307 292 276 234 219 221 237 262 268 225 218 251 270 284 272 272 266 252 247 243 248 245 237 228 223
235 245 246 237 232 214 207 215 231 243 250 252 272 294 303 297 271 245 232 229 239 251 231 206 239 237 247 284 290 278 266 273 270 261 248 235 224 214
231 239 242 238 239 227 221 230 232 228 231 242 261 273 276 276 270 263 251 244 242 251 242 217 230 226 238 270 280 286 278 275 271 271 264 242 230 225
231 236 243 249 243 243 240 235 223 216 224 238 252 261 263 268 277 280 273 260 261 262 249 228 225 221 226 247 263 269 281 279 263 261 263 253 248 240
240 248 248 247 241 240 243 231 224 223 224 239 249 256 262 266 272 278 282 286 286 289 282 247 226 218 230 238 246 260 264 261 262 259 262 265 260 244
192 180 220 255 256 262 257 248 241 240 237 242 246 255 259 263 268 265 260 268 269 283 292 295 271 230 231 232 245 250 255 259 257 254 260 266 266 260
161 208 229 238 245 249 253 256 247 240 239 239 242 246 250 255 263 259 247 247 256 266 272 275 263 259 258 251 228 244 251 256 258 246 247 261 272 270
190 228 234 238 246 250 249 247 248 245 236 234 239 241 244 249 257 258 254 252 255 260 261 249 228 225 252 272 254 217 238 252 250 249 245 248 259 266
230 238 243 246 248 251 255 256 254 250 239 240 242 243 240 241 247 249 246 248 255 260 258 247 235 229 232 253 265 261 229 232 237 245 249 256 265 270
240 244 249 251 253 253 256 257 256 252 245 240 243 240 237 236 241 243 244 243 245 252 254 256 258 246 241 231 251 266 268 241 231 235 236 244 259 257
247 248 252 255 255 252 252 254 256 255 250 246 245 241 236 234 238 240 239 239 242 246 254 265 271 236 226 231 245 256 267 288 266 236 238 226 230 234
253 256 257 257 255 252 252 251 251 253 250 246 247 245 239 239 241 239 238 237 239 243 249 254 256 245 240 233 236 242 243 249 250 242 280 285 254 257
Height
1531 1531 1531 1531 1531 1532 1532 1532 1532 1531 1531 1531 1531 1531 1531 1531 1531 1530 1530 1530 1530 1530 1531 1531 1531 1531 1532 1532 1532 1532 1532 1532 1533 1533 1534 1534 1535 1535
1529 1529 1529 1529 1529 1530 1530 1530 1530 1530 1529 1529 1529 1529 1529 1529 1529 1528 1528 1528 1528 1528 1529 1529 1529 1529 1529 1529 1529 1529 1529 1530 1530 1530 1531 1532 1532 1533
1527 1527 1527 1527 1527 1527 1527 1527 1527 1527 1527 1527 1527 1527 1527 1527 1527 1527 1527 1526 1526 1526 1526 1526 1527 1527 1526 1526 1526 1526 1526 1527 1527 1528 1528 1529 1529 1530
1525 1525 1525 1525 1525 1525 1525 1525 1525 1525 1525 1524 1524 1525 1525 1525 1525 1525 1524 1524 1524 1524 1524 1524 1524 1524 1523 1523 1523 1523 1523 1523 1524 1525 1525 1525 1526 1526
1522 1523 1523 1523 1522 1522 1522 1522 1523 1523 1523 1522 1522 1522 1522 1522 1522 1522 1521 1521 1521 1521 1521 1521 1520 1520 1520 1520 1520 1519 1519 1520 1520 1521 1521 1522 1522 1523
1520 1520 1520 1520 1520 1520 1520 1520 1520 1520 1520 1520 1520 1520 1520 1519 1519 1518 1518 1518 1518 1518 1517 1517 1517 1517 1516 1516 1516 1516 1516 1516 1516 1517 1517 1518 1519 1519
1518 1518 1517 1517 1517 1517 1517 1518 1518 1518 1518 1518 1517 1517 1517 1516 1516 1516 1515 1515 1514 1514 1514 1514 1513 1513 1513 1513 1512 1512 1512 1512 1513 1513 1513 1514 1514 1515
1515 1515 1515 1515 1514 1515 1515 1515 1516 1515 1515 1515 1515 1515 1514 1514 1513 1513 1512 1511 1510 1511 1510 1510 1510 1509 1509 1509 1509 1509 1509 1509 1509 1509 1509 1510 1510 1510
1512 1512 1512 1512 1512 1512 1513 1513 1513 1513 1513 1513 1512 1511 1511 1511 1510 1509 1509 1508 1507 1507 1507 1506 1506 1506 1506 1506 1506 1506 1505 1505 1505 1505 1505 1506 1506 1506
1509 1509 1509 1509 1509 1510 1510 1509 1509 1510 1509 1509 1509 1508 1508 1508 1507 1507 1506 1505 1504 1504 1504 1503 1502 1502 1502 1502 1502 1502 1501 1501 1501 1501 1501 1501 1502 1502
1507 1507 1506 1506 1507 1507 1507 1507 1506 1506 1507 1506 1506 1505 1505 1505 1504 1504 1503 1502 1501 1501 1501 1500 1499 1498 1498 1498 1498 1498 1497 1497 1497 1498 1498 1497 1498 1498
1504 1504 1504 1504 1504 1504 1504 1504 1503 1503 1503 1503 1503 1502 1502 1502 1501 1501 1500 1499 1498 1497 1497 1496 1495 1495 1494 1493 1494 1494 1493 1493 1494 1494 1494 1494 1494 1494
1500 1500 1500 1501 1501 1501 1501 1501 1500 1500 1500 1500 1499 1499 1499 1498 1498 1497 1497 1496 1495 1494 1494 1493 1492 1492 1491 1490 1489 1490 1489 1489 1490 1489 1489 1489 1489 1490
1496 1497 1497 1497 1497 1498 1498 1498 1497 1497 1497 1496 1496 1495 1495 1495 1494 1494 1493 1492 1492 1491 1491 1490 1489 1489 1488 1487 1486 1485 1486 1486 1486 1486 1485 1485 1485 1486
1493 1493 1494 1494 1494 1494 1494 1494 1494 1494 1493 1493 1492 1492 1491 1491 1490 1490 1489 1489 1488 1487 1487 1486 1486 1485 1485 1484 1482 1482 1482 1482 1482 1482 1482 1482 1482 1482
1488 1489 1490 1490 1490 1490 1490 1490 1490 1490 1490 1489 1488 1488 1488 1487 1487 1486 1485 1485 1484 1483 1483 1482 1482 1482 1481 1481 1480 1479 1479 1479 1479 1479 1479 1478 1478 1478
1484 1485 1485 1486 1486 1486 1486 1486 1486 1486 1485 1485 1485 1484 1484 1484 1483 1483 1482 1481 1481 1480 1479 1479 1478 1478 1478 1478 1477 1476 1476 1476 1476 1476 1475 1474 1474 1474
1480 1480 1481 1482 1482 1482 1482 1482 1482 1481 1481 1481 1481 1480 1480 1480 1479 1479 1479 1478 1477 1476 1476 1475 1475 1475 1474 1474 1474 1473 1473 1473 1472 1472 1471 1471 1470 1470
1476 1476 1476 1477 1478 1478 1478 1477 1477 1477 1477 1476 1476 1476 1476 1476 1475 1475 1474 1474 1473 1473 1472 1472 1472 1471 1471 1470 1470 1471 1470 1469 1469 1468 1468 1467 1467 1466
1472 1472 1472 1473 1473 1473 1473 1473 1473 1472 1472 1472 1472 1472 1472 1471 1471 1471 1470 1470 1469 1469 1468 1468 1468 1468 1467 1467 1466 1466 1466 1466 1465 1465 1465 1464 1463 1463
1468 1468 1468 1468 1468 1468 1468 1468 1468 1468 1468 1467 1467 1467 1467 1467 1467 1466 1466 1465 1465 1464 1464 1464 1464 1464 1464 1463 1463 1462 1462 1462 1462 1462 1461 1461 1460 1459
1464 1464 1464 1464 1464 1464 1464 1463 1463 1463 1463 1463 1462 1462 1463 1462 1462 1462 1461 1461 1460 1460 1460 1460 1460 1460 1460 1459 1459 1458 1458 1459 1459 1458 1458 1458 1457 1456
1460 1460 1460 1460 1460 1459 1459 1459 1458 1458 1458 1458 1457 1457 1457 1457 1458 1457 1457 1457 1456 1456 1455 1455 1455 1455 1455 1455 1455 1455 1455 1455 1455 1454 1454 1454 1454 1453